Location: Franzen
(48.6167°N, 15.3833°E)
Time: 10:58:14
(UTC+00:00)

Helios 1B rocket - Pass Details

Date: 22 April 2021
Orbit: 575 x 581 km, 98.2° (Epoch: 16 May)

Event Time Altitude Azimuth Distance (km) Brightness Sun altitude
Rises 23:42:12 0° 26° (NNE) 2,812 7.1 -28.0°
Reaches altitude 10° 23:44:48 10° 42° (NE) 1,907 5.8 -27.9°
Enters shadow 23:47:24 21° 81° (E) 1,339 4.5 -27.8°
